Location: Newark
(44.1667°N, 8.2500°E)
Time: 05:44:38
(UTC+00:00)

S-56A Canister/Altair - Pass Details

Date: 10 December 2019
Orbit: 634 x 2498 km, 38.9° (Epoch: 23 January)

Event Time Altitude Azimuth Distance (km) Brightness Sun altitude
Rises 11:57:40 0° 261° (W) 6,035 12.3 22.4°
Reaches altitude 10° 12:01:31 10° 260° (W) 5,112 12.1 22.2°
Maximum altitude 12:16:36 72° 181° (S) 2,502 10.8 21.7°
Drops below altitude 10° 12:29:29 10° 100° (E) 4,438 11.4 21.0°
Sets 12:32:33 0° 99° (E) 5,228 11.7 20.9°
